Preview of NWS' New Version of Forecast
This preview is not operational and should not be used for support decisions.

Regional Weather Roundup (RWR)

Issued by National Weather Service (NWS)

                            
000
ASUS43 KTOP 190908
RWRKS 

WEATHER ROUNDUP FOR KANSAS
NATIONAL WEATHER SERVICE GOODLAND KS
300 AM CST TUE FEB 19 2019

NOTE:  "FAIR" INDICATES FEW OR NO CLOUDS BELOW 12,000 FEET WITH NO
SIGNIFICANT WEATHER AND/OR OBSTRUCTIONS TO VISIBILITY.

KSZ001>006-013>018-027>032-041>047-191000-
NORTHWEST KANSAS
  
CITY           SKY/WX    TMP DP  RH WIND       PRES   REMARKS
GOODLAND       CLOUDY    14  13  95 SE15      30.19F WCI  -1          
HAYS           CLOUDY    13  11  92 NE9       30.38F                  
HILL CITY      CLOUDY    13  10  88 E6        30.38S                  
RUSSELL        CLOUDY    14  13  95 NE7       30.38F                  
$$

KSZ061>065-074>080-084>089-191000-
SOUTHWEST KANSAS
  
CITY           SKY/WX    TMP DP  RH WIND       PRES   REMARKS
DODGE CITY     CLOUDY    16  12  84 NE8       30.29F                  
ELKHART        CLOUDY    17  16  93 SE10      30.19F WCI   5          
GARDEN CITY    CLOUDY    14  12  92 E10       30.27F WCI   1          
GREAT BEND     CLOUDY    17  14  88 NE9       30.37F                  
LIBERAL        CLOUDY    16  11  80 E6        30.27F                  
PRATT          CLOUDY    20  17  87 NE8       30.35F                  
$$

KSZ066>073-081>083-090>101-191000-
SOUTHEAST KANSAS
  
CITY           SKY/WX    TMP DP  RH WIND       PRES   REMARKS
CHANUTE        CLOUDY    26  18  71 E7        30.45F                  
COFFEYVILLE    MOCLDY    27  20  75 NE7       30.45S                  
HUTCHINSON     CLOUDY    21  18  88 E10       30.39F WCI  10          
MEDICINE LODGE   N/A     23  17  78 NE9       30.35F                  
NEWTON         CLOUDY    20  17  88 NE7       30.41F                  
PARSONS        MOCLDY    26  19  74 VRB5      30.46R                  
WICHITA INTL   CLOUDY    24  17  74 E12       30.41S WCI  13          
WICHITA JABRA  CLOUDY    22  16  78 E9        30.41S                  
WICHITA MCCONL CLOUDY    23  16  74 E9        30.41R                  
WINFIELD       CLOUDY    24  16  71 E9        30.40F                  
$$

KSZ007>012-019>026-033>040-048>060-102>105-191000-
NORTHEAST KANSAS
  
CITY           SKY/WX    TMP DP  RH WIND       PRES   REMARKS
CONCORDIA      CLOUDY    10   8  92 CALM      30.46F                  
EMPORIA        CLOUDY    21  17  84 NE9       30.45F                  
LAWRENCE       CLOUDY    21  15  78 E6        30.52F                  
MANHATTAN      CLOUDY    18  13  80 E6        30.50S                  
MARYSVILLE     CLOUDY    10   9  92 CALM      30.50F                  
OLATHE IND     CLOUDY    21  16  81 E6        30.50F                  
OLATHE EXE     CLOUDY    20  15  81 E7        30.49F                  
SALINA         CLOUDY    19  15  84 NE8       30.46F                  
TOPEKA BILLARD CLOUDY    19  13  77 CALM      30.52S                  
TOPEKA FORBES  CLOUDY    18  14  84 CALM      30.50S                  
$$